User: anonymous   Login
Location: Alpine
(43.1636°N, 111.0180°W)
Time: 22:43:23
(UTC+00:00)
Language:

Transit 2A Rocket - Orbit

View from above orbital plane
View from above orbital plane
View from above satellite
View from above satellite

Ground track
Ground track

The orbit data is extracted from the following two-line orbital elements,

1 00047U 60007C   22147.87343604  .00000315  00000-0  95529-4 0  9998
2 00047  66.6672  57.8569 0222590 145.8613 215.7040 14.42332965236979
Epoch (UTC): 27 May 2022 20:57:44
Eccentricity: 0.0222590
inclination: 66.6672°
perigee height: 592 km
apogee height: 909 km
right ascension of ascending node: 57.8569°
argument of perigee: 145.8613°
revolutions per day: 14.42332965
mean anomaly at epoch: 215.7040°
orbit number at epoch: 23697

The dashed part of the orbit path shows where the satellite is in the earth's shadow,  

DLR